Hoffman, NC

12:19 AM EST on February 07, 2016 (GMT -0500)
Mackall Army Air Field

Weather History for KHFF - December, 2013

Change the Weather History Date:

Thursday, December 26, 2013

  Actual Average Record
Temperature  
Mean Temperature 40 °F -  
Max Temperature 52 °F 52 °F 72 °F (2015)
Min Temperature 29 °F 31 °F 25 °F (2010)
Degree Days  
Heating Degree Days 24    
Moisture  
Dew Point 27 °F    
Average Humidity 67    
Maximum Humidity 99    
Minimum Humidity 37    
Precipitation  
Precipitation 0.00 in - - ()
Sea Level Pressure  
Sea Level Pressure 30.35 in    
Wind  
Wind Speed 3 mph (NNW)    
Max Wind Speed 6 mph    
Max Gust Speed -    
Visibility 12 miles    
Events Rain    
Averages and records for this station are not official NWS values.
T = Trace of Precipitation, MM = Missing Value Source: NWS Daily Summary

Daily Weather History Graph

Daily Weather History Graph

Search for Another Location

Airport or City:

Trip Planner

Search our weather history database for the weather conditions in past years. The results will help you decide how hot, cold, wet, or windy it might be!

Date:

Astronomy

Dec. 26, 2013 Rise Set
Actual Time 7:24 AM EST 5:13 PM EST
Civil Twilight 6:56 AM EST 5:41 PM EST
Nautical Twilight 6:24 AM EST 6:12 PM EST
Astronomical Twilight 5:53 AM EST 6:43 PM EST
Moon 1:01 AM EST (12/26) 12:38 PM EST (12/26)
Length of Visible Light 10h 44m
Length of Day
9h 48m
Last Quarter, 38% of the Moon is Illuminated
Dec 26
Last Quarter
Jan 1
New
Jan 7
First Quarter
Jan 15
Full
Jan 24
Last Quarter

Hourly Weather History & Observations

Time (EST) Temp. Windchill Dew Point Humidity Pressure Visibility Wind Dir Wind Speed Gust Speed Precip Events Conditions
12:56 AM 33.4 °F - 21.2 °F 61% 30.41 in 12.0 mi Variable 1.2 mph - N/A   Mostly Cloudy
1:56 AM 34.0 °F - 22.8 °F 64% 30.38 in 12.0 mi NNE 2.3 mph - N/A   Overcast
2:56 AM 34.5 °F - 24.4 °F 67% 30.38 in 12.0 mi NNW 2.3 mph - N/A   Overcast
3:56 AM 35.2 °F - 23.2 °F 62% 30.36 in 12.0 mi North 2.3 mph - N/A   Overcast
4:56 AM 35.1 °F - 24.6 °F 66% 30.35 in 12.0 mi WNW 2.3 mph - N/A   Overcast
5:56 AM 35.4 °F - 24.3 °F 64% 30.36 in 12.0 mi Variable 1.2 mph - N/A   Overcast
6:56 AM 36.0 °F - 25.3 °F 65% 30.37 in 12.0 mi WNW 2.3 mph - N/A   Overcast
7:56 AM 36.3 °F - 24.6 °F 63% 30.36 in 12.0 mi Variable 1.2 mph - N/A   Overcast
8:27 AM 37.4 °F - 24.8 °F 60% 30.35 in 12.0 mi NW 2.3 mph - N/A   Light Drizzle
8:47 AM 37.4 °F 33.8 °F 28.4 °F 70% 30.36 in 12.0 mi North 4.6 mph - N/A   Overcast
8:50 AM 37.4 °F 34.9 °F 28.4 °F 70% 30.36 in 12.0 mi NNW 3.5 mph - N/A Rain Light Rain Showers
8:56 AM 36.7 °F 32.9 °F 27.5 °F 69% 30.38 in 12.0 mi North 4.6 mph - N/A Rain Light Rain Showers
9:05 AM 37.4 °F 33.8 °F 26.6 °F 65% 30.36 in 12.0 mi North 4.6 mph - N/A   Overcast
9:56 AM 37.9 °F 33.5 °F 26.8 °F 64% 30.38 in 12.0 mi NNW 5.8 mph - N/A   Overcast
10:26 AM 39.2 °F 37.0 °F 26.6 °F 61% 30.37 in 12.0 mi West 3.5 mph - N/A   Overcast
10:46 AM 39.2 °F 37.0 °F 26.6 °F 61% 30.37 in 12.0 mi NW 3.5 mph - N/A   Overcast
10:56 AM 39.0 °F 34.8 °F 25.5 °F 58% 30.39 in 12.0 mi NW 5.8 mph - N/A   Overcast
11:56 AM 41.0 °F 37.1 °F 26.8 °F 57% 30.36 in 12.0 mi NW 5.8 mph - N/A   Mostly Cloudy
12:56 PM 45.5 °F 44.2 °F 27.0 °F 48% 30.32 in 12.0 mi NW 3.5 mph - N/A   Mostly Cloudy
1:56 PM 48.0 °F - 25.9 °F 42% 30.29 in 12.0 mi Variable 1.2 mph - N/A   Clear
2:56 PM 51.6 °F - 26.2 °F 37% 30.27 in 12.0 mi Variable 2.3 mph - N/A   Clear
3:56 PM 52.5 °F - 27.5 °F 38% 30.27 in 12.0 mi NNW 5.8 mph - N/A   Clear
4:56 PM 51.3 °F - 29.3 °F 43% 30.29 in 12.0 mi NW 1.2 mph - N/A   Clear
5:56 PM 39.4 °F - 34.2 °F 82% 30.31 in 12.0 mi East 2.3 mph - N/A   Clear
6:56 PM 35.4 °F - 32.2 °F 88% 30.33 in 12.0 mi NE 1.2 mph - N/A   Clear
7:56 PM 33.4 °F - 31.6 °F 93% 30.35 in 12.0 mi Calm Calm - N/A   Clear
8:56 PM 32.2 °F 27.7 °F 30.7 °F 94% 30.36 in 12.0 mi NNW 4.6 mph - N/A   Clear
9:56 PM 31.6 °F 26.0 °F 31.3 °F 99% 30.37 in 12.0 mi NNW 5.8 mph - N/A   Clear
10:56 PM 29.7 °F 24.7 °F 29.3 °F 99% 30.39 in 12.0 mi NNW 4.6 mph - N/A   Clear
11:56 PM 31.5 °F 28.1 °F 28.6 °F 89% 30.39 in 12.0 mi NNW 3.5 mph - N/A   Clear